Content
SEND FEEDBACK

Daily
Averages
Monthly
Summary
Burkina Faso

OUAGADOUGOU, BURKINA FASO


Home > Africa > Burkina Faso
Elevation: 1004 feet     Latitude: 12 21N     Longitude: 001 31W

WEATHER
 
SELECT A DAY
Number of Records: 102,280;   Date Range: 4/27/97 - 9/15/14
 
SHARE

PRINT THIS DATA

[ ← Previous Day ]
WEATHER ALMANAC - JANUARY 23, 2013
[ Next Day → ]
[ °C ]   °F
Weather ElementAverageHighLow
Temperature82.5 °F98.6 °F (3:00 pm)64 °F (6:00 am)
Dewpoint32.5 °F46.4 °F (7:30 am)23 °F (10:30 am)
Humidity20.1 %43 % (2:30 am)6 % (12:00 pm)
Barometer29.90 in29.98 in (9:00 am)29.80 in (6:00 pm)
Wind Speed4.3 mph9.2 mph (12:00 pm)
Weather ElementAverage
Visibility2.7 mi
Wind DirectionWSW (232.6 °)

Weather ElementTotal
Precipitation---
Cooling Degree Days16.3 (Base 65)
Growing Degree Days31.3 (Base 50)
Averaged from 50 records on January 23, 2013
WEATHER CONDITIONS BREAKOUT
WIND DIRECTION BREAKOUT
WEATHER BY HOUR - JANUARY 23, 2013
[ °C ]   °F
Local TimeTemperatureDewpointHumidityBarometerVisibilityWind DirectionWind SpeedGust SpeedPrecipitationEventsConditions
12:00 AM71.6 °F44.6 °F38 %29.92 in2.2 miWNW (300°)2.3 mphHaze
12:30 AM73.4 °F44.6 °F36 %29.92 in2.2 miCalmHaze
1:00 AM69.8 °F44.6 °F40 %29.92 in2.2 miNW (320°)1.2 mphHaze
1:30 AM69.8 °F44.6 °F40 %29.92 in2.2 miNW (310°)3.5 mphHaze
2:00 AM69.8 °F44.6 °F40 %29.92 in2.2 miNW (310°)2.3 mphHaze
2:30 AM68.0 °F44.6 °F43 %29.89 in2.2 miNW (310°)2.3 mphHaze
3:00 AM68.0 °F41.0 °F37 %29.89 in2.2 miNNW (340°)3.5 mphHaze
3:30 AM69.8 °F39.2 °F33 %29.89 in2.2 miNNW (340°)2.3 mphHaze
4:00 AM68.0 °F42.8 °F40 %29.89 in2.5 miNW (320°)2.3 mphHaze
4:30 AM68.0 °F41.0 °F37 %29.89 in2.5 miNW (310°)2.3 mphHaze
5:00 AM68.0 °F41.0 °F37 %29.89 in2.5 miNNW (330°)3.5 mphHaze
5:30 AM66.2 °F41.0 °F40 %29.89 in2.8 miNNW (330°)3.5 mphHaze
6:00 AM68.0 °F39.2 °F35 %29.92 in2.8 miNNW (330°)2.3 mphHaze
6:00 AM64.0 °F45.0 °F39 %29.86 in2.0 miWest (280°)2.3 mphWidespread Dust
6:30 AM66.2 °F41.0 °F40 %29.92 in2.8 miNNW (330°)3.5 mphHaze
7:00 AM68.0 °F41.0 °F37 %29.92 in1.6 miNW (320°)1.2 mphHaze
7:30 AM69.8 °F46.4 °F43 %29.92 in1.6 miCalmHaze
8:00 AM75.2 °F37.4 °F25 %29.95 in0.9 miCalmHaze
8:30 AM78.8 °F30.2 °F17 %29.95 in0.9 miVariable2.3 mphHaze
9:00 AM80.6 °F32.0 °F17 %29.98 in0.9 miNorth (360°)4.6 mphHaze
9:30 AM82.4 °F26.6 °F13 %29.98 in2.2 miNNE (30°)4.6 mphHaze
10:00 AM86.0 °F26.6 °F12 %29.98 in2.2 miNE (40°)5.8 mphHaze
10:30 AM87.8 °F23.0 °F9 %29.98 in2.8 miNE (40°)8.1 mphHaze
11:00 AM89.6 °F23.0 °F9 %29.95 in2.8 miNE (40°)8.1 mphHaze
11:30 AM91.4 °F24.8 °F9 %29.95 in5.0 miNE (40°)6.9 mph
12:00 PM93.2 °F26.6 °F9 %29.92 in5.0 miNE (40°)6.9 mph
12:00 PM94.0 °F36.0 °F6 %29.87 in6.0 miNE (40°)9.2 mphClear
12:30 PM95.0 °F24.8 °F8 %29.92 inNNE (30°)5.8 mphClear
1:00 PM95.0 °F24.8 °F8 %29.89 inNNE (30°)4.6 mphClear
1:30 PM96.8 °F23.0 °F7 %29.89 inVariable2.3 mphClear
2:00 PM96.8 °F23.0 °F7 %29.86 inNNW (340°)5.8 mphClear
2:30 PM96.8 °F23.0 °F7 %29.86 inVariable5.8 mphClear
3:00 PM98.6 °F26.6 °F8 %29.83 inWNW (300°)5.8 mphClear
3:30 PM98.6 °F26.6 °F8 %29.83 inNNW (330°)5.8 mphClear
4:00 PM98.6 °F26.6 °F8 %29.83 inWest (280°)5.8 mphClear
4:30 PM96.8 °F26.6 °F8 %29.83 inNNW (340°)6.9 mphClear
5:00 PM95.0 °F24.8 °F8 %29.83 inNorth (350°)5.8 mphClear
5:30 PM95.0 °F26.6 °F9 %29.86 in3.7 miNNW (340°)4.6 mph
6:00 PM93.2 °F28.4 °F10 %29.86 in2.8 miNNW (340°)3.5 mphHaze
6:00 PM93.0 °F43.0 °F10 %29.80 in5.0 miNNW (340°)2.3 mphWidespread Dust
6:30 PM91.4 °F28.4 °F10 %29.86 in2.2 miNorth (350°)4.6 mphHaze
7:00 PM89.6 °F30.2 °F12 %29.89 in2.8 miNNW (340°)4.6 mphHaze
7:30 PM87.8 °F28.4 °F12 %29.89 in2.8 miNNW (340°)4.6 mphHaze
8:00 PM86.0 °F28.4 °F12 %29.89 in3.7 miNorth (360°)5.8 mph
8:30 PM86.0 °F26.6 °F12 %29.92 in3.7 miNorth (350°)6.9 mph
9:30 PM84.2 °F24.8 °F11 %29.92 inNorth (360°)6.9 mphClear
10:00 PM82.4 °F24.8 °F12 %29.92 inNNE (20°)5.8 mphClear
10:30 PM80.6 °F26.6 °F14 %29.92 inNorth (360°)5.8 mphClear
11:00 PM80.6 °F24.8 °F13 %29.92 inNorth (360°)5.8 mphClear
11:30 PM80.6 °F23.0 °F12 %29.92 inNorth (360°)5.8 mphClear
Hourly data recorded from DFFD, located miles away from Ouagadougou, Burkina Faso







STORIES FROM OUR PARTNERS